This is the latest recevied weather packets stored in our database for station/object NZ3C. If no packets are shown the sender has not sent any weather packets the latest 10 day(s).
| Time | Temp. | Humidity | Pressure | Rain* | Wind** | Luminosity | Snow |
|---|---|---|---|---|---|---|---|
| 1776980491 | 30° C | 23% | 1013.5 hPa | 0 mm | - | 71 W/m² | - |
| 1776980187 | 29.44° C | 24% | 1013.5 hPa | 0 mm | - | 184 W/m² | - |
| 1776979883 | 30° C | 24% | 1013.6 hPa | 0 mm | - | 76 W/m² | - |
| 1776979578 | 30° C | 23% | 1013.5 hPa | 0 mm | - | 81 W/m² | - |
| 1776979275 | 30° C | 24% | 1013.5 hPa | 0 mm | - | 80 W/m² | - |
| 1776978972 | 30° C | 24% | 1013.7 hPa | 0 mm | - | 77 W/m² | - |
| 1776978668 | 30° C | 23% | 1013.6 hPa | 0 mm | - | 88 W/m² | - |
| 1776978366 | 30.56° C | 22% | 1013.8 hPa | 0 mm | - | 96 W/m² | - |
| 1776978064 | 30.56° C | 21% | 1013.6 hPa | 0 mm | - | 387 W/m² | - |
| 1776977761 | 30.56° C | 23% | 1013.7 hPa | 0 mm | - | 411 W/m² | - |
| 1776977457 | 31.11° C | 21% | 1013.7 hPa | 0 mm | - | 429 W/m² | - |
| 1776977153 | 31.67° C | 21% | 1013.7 hPa | 0 mm | - | 445 W/m² | - |
| 1776976849 | 31.11° C | 20% | 1013.7 hPa | 0 mm | - | 463 W/m² | - |
| 1776976544 | 30.56° C | 22% | 1013.7 hPa | 0 mm | - | 484 W/m² | - |
| 1776976239 | 30.56° C | 21% | 1013.6 hPa | 0 mm | - | 503 W/m² | - |
| 1776975936 | 31.11° C | 21% | 1013.6 hPa | 0 mm | - | 518 W/m² | - |
| 1776975633 | 31.67° C | 21% | 1013.9 hPa | 0 mm | - | 534 W/m² | - |
| 1776975330 | 31.11° C | 21% | 1013.9 hPa | 0 mm | - | 551 W/m² | - |
| 1776975027 | 31.11° C | 20% | 1014 hPa | 0 mm | - | 565 W/m² | - |
| 1776974724 | 30.56° C | 22% | 1014.1 hPa | 0 mm | - | 579 W/m² | - |
| 1776974421 | 31.67° C | 22% | 1013.9 hPa | 0 mm | - | 605 W/m² | - |
| 1776974118 | 31.11° C | 22% | 1014.2 hPa | 0 mm | - | 615 W/m² | - |
| 1776973815 | 30.56° C | 22% | 1014.1 hPa | 0 mm | - | 625 W/m² | - |
| 1776973513 | 31.11° C | 22% | 1014.4 hPa | 0 mm | - | 640 W/m² | - |
| 1776973210 | 31.11° C | 22% | 1014.4 hPa | 0 mm | - | 654 W/m² | - |
* Rain latest hour (hover to see other rain measurements)
** Current wind speed in m/s (hover to see current wind gust speed)